When you browse on this site, cookies collect data to enhance your experience and personalize the content and advertising you see.
Visit our Privacy Policy to learn more. By continuing to use the site, you agree to this use of cookies and data.
  • In Latvia
  • List of Countries
  • For 7 days
  • Water Temperature
  • Satellite Maps
  • Weather Map
  • Weather Widgets
  • user-avatar
    Login

    Hourly Weather Tibissa

    Today, 21 January, Monday

    Time Temperature Precipitation Wind Pressure Humidity
    00:00 +3°C° 0 mm 5 mps 678 mmHg 83%
    01:00 +3°C° 0 mm 5 mps 678 mmHg 85%
    02:00 +3°C° 0 mm 5 mps 678 mmHg 86%
    03:00 +3°C° 0 mm 5 mps 678 mmHg 87%
    04:00 +5°C° 0 mm 4 mps 678 mmHg 88%
    05:00 +4°C° 0 mm 4 mps 678 mmHg 88%
    06:00 +4°C° 0 mm 3 mps 678 mmHg 89%
    07:00 +4°C° 0 mm 3 mps 677 mmHg 90%
    08:00 +5°C° 0 mm 3 mps 678 mmHg 83%
    09:00 +7°C° 0 mm 3 mps 678 mmHg 76%
    10:00 +9°C° 0 mm 3 mps 679 mmHg 69%
    11:00 +10°C° 0 mm 4 mps 679 mmHg 64%
    12:00 +9°C° 0 mm 5 mps 679 mmHg 59%
    13:00 +10°C° 0 mm 6 mps 679 mmHg 54%
    14:00 +10°C° 0.1 mm 7 mps 679 mmHg 55%
    15:00 +9°C° 0.1 mm 8 mps 679 mmHg 56%
    16:00 +8°C° 0.1 mm 9 mps 679 mmHg 57%
    17:00 +6°C° 0 mm 9 mps 679 mmHg 64%
    18:00 +5°C° 0 mm 8 mps 679 mmHg 71%
    19:00 +4°C° 0 mm 8 mps 679 mmHg 77%
    20:00 +4°C° 0 mm 8 mps 680 mmHg 78%
    21:00 +4°C° 0 mm 8 mps 680 mmHg 79%
    22:00 +2°C° 0 mm 8 mps 681 mmHg 80%
    23:00 +2°C° 0 mm 8 mps 681 mmHg 81%

    Tomorrow, 22 January, Tuesday

    Time Temperature Precipitation Wind Pressure Humidity
    00:00 +3°C° 0 mm 7 mps 681 mmHg 82%
    01:00 +3°C° 0 mm 7 mps 681 mmHg 83%
    02:00 +2°C° 0 mm 6 mps 681 mmHg 85%
    03:00 +2°C° 0 mm 6 mps 681 mmHg 87%
    04:00 +1°C° 0 mm 5 mps 681 mmHg 89%
    05:00 +1°C° 0 mm 5 mps 681 mmHg 88%
    06:00 +1°C° 0 mm 5 mps 681 mmHg 87%
    07:00 +1°C° 0 mm 5 mps 681 mmHg 87%
    08:00 +2°C° 0 mm 5 mps 681 mmHg 81%
    09:00 +2°C° 0 mm 5 mps 682 mmHg 75%
    10:00 +3°C° 0 mm 5 mps 682 mmHg 69%
    11:00 +5°C° 0 mm 4 mps 682 mmHg 63%
    12:00 +6°C° 0 mm 4 mps 681 mmHg 56%
    13:00 +7°C° 0 mm 4 mps 681 mmHg 49%
    14:00 +7°C° 0 mm 4 mps 681 mmHg 48%
    15:00 +8°C° 0 mm 3 mps 680 mmHg 47%
    16:00 +8°C° 0 mm 3 mps 680 mmHg 45%
    17:00 +7°C° 0.1 mm 2 mps 679 mmHg 49%
    18:00 +7°C° 0.1 mm 1 mps 679 mmHg 53%
    19:00 +7°C° 0.1 mm 1 mps 679 mmHg 57%
    20:00 +6°C° 0.1 mm 1 mps 679 mmHg 60%
    21:00 +5°C° 0.1 mm 2 mps 679 mmHg 63%
    22:00 +5°C° 0.1 mm 2 mps 679 mmHg 66%
    23:00 +4°C° 0 mm 2 mps 678 mmHg 70%

    Day after tomorrow, 23 January, Wednesday

    Time Temperature Precipitation Wind Pressure Humidity
    00:00 +3°C° 0 mm 3 mps 678 mmHg 73%
    01:00 +2°C° 0 mm 3 mps 677 mmHg 77%
    02:00 +2°C° 0 mm 3 mps 676 mmHg 78%
    03:00 +2°C° 0 mm 3 mps 676 mmHg 80%
    04:00 +2°C° 0 mm 2 mps 675 mmHg 81%
    05:00 +1°C° 0 mm 3 mps 674 mmHg 80%
    06:00 +1°C° 0 mm 3 mps 674 mmHg 80%
    07:00 +1°C° 0 mm 3 mps 673 mmHg 79%
    08:00 +1°C° 0.1 mm 5 mps 673 mmHg 75%
    09:00 0°C° 0.1 mm 7 mps 674 mmHg 71%
    10:00 +1°C° 0.1 mm 8 mps 674 mmHg 68%
    11:00 +2°C° 0.1 mm 8 mps 673 mmHg 65%
    12:00 +3°C° 0.1 mm 9 mps 673 mmHg 62%
    13:00 +3°C° 0.1 mm 9 mps 673 mmHg 59%
    14:00 +3°C° 0.2 mm 9 mps 672 mmHg 60%
    15:00 +3°C° 0.2 mm 9 mps 672 mmHg 61%
    16:00 +3°C° 0.2 mm 9 mps 672 mmHg 62%
    17:00 +3°C° 0.1 mm 7 mps 671 mmHg 63%
    18:00 +3°C° 0.1 mm 6 mps 671 mmHg 65%
    19:00 +2°C° 0.1 mm 5 mps 670 mmHg 66%
    20:00 +2°C° 0.2 mm 7 mps 670 mmHg 69%
    21:00 +1°C° 0.2 mm 8 mps 669 mmHg 73%
    22:00 +1°C° 0.2 mm 10 mps 669 mmHg 76%
    23:00 0°C° 0.7 mm 9 mps 669 mmHg 81%

    24 January, Thursday

    Time Temperature Precipitation Wind Pressure Humidity
    00:00 -1°C° 0.7 mm 8 mps 669 mmHg 86%
    01:00 -2°C° 0.7 mm 8 mps 668 mmHg 91%
    02:00 -2°C° 0.4 mm 8 mps 668 mmHg 88%
    03:00 -4°C° 0.4 mm 9 mps 668 mmHg 86%
    04:00 -4°C° 0.4 mm 9 mps 668 mmHg 84%
    05:00 -5°C° 0 mm 9 mps 667 mmHg 85%
    06:00 -5°C° 0 mm 9 mps 667 mmHg 85%
    07:00 -6°C° 0 mm 9 mps 667 mmHg 85%
    08:00 -6°C° 0 mm 11 mps 667 mmHg 82%
    09:00 -6°C° 0 mm 14 mps 667 mmHg 79%
    10:00 -5°C° 0 mm 16 mps 667 mmHg 77%
    11:00 -6°C° 0.1 mm 17 mps 667 mmHg 77%
    12:00 -4°C° 0.1 mm 18 mps 666 mmHg 77%
    13:00 -5°C° 0.1 mm 19 mps 666 mmHg 76%
    14:00 -4°C° 0 mm 18 mps 667 mmHg 77%
    15:00 -3°C° 0 mm 17 mps 667 mmHg 77%
    16:00 -3°C° 0 mm 16 mps 668 mmHg 77%
    17:00 -3°C° 0.1 mm 15 mps 669 mmHg 81%
    18:00 -4°C° 0.1 mm 14 mps 669 mmHg 84%
    19:00 -4°C° 0.1 mm 13 mps 670 mmHg 88%
    20:00 -4°C° 0.4 mm 13 mps 671 mmHg 89%
    21:00 -2°C° 0.4 mm 14 mps 671 mmHg 90%
    22:00 -2°C° 0.4 mm 14 mps 672 mmHg 91%
    23:00 -2°C° 0 mm 13 mps 672 mmHg 93%

    25 January, Friday

    Time Temperature Precipitation Wind Pressure Humidity
    00:00 -2°C° 0 mm 11 mps 673 mmHg 94%
    01:00 -1°C° 0 mm 9 mps 673 mmHg 96%
    02:00 -1°C° 0 mm 8 mps 673 mmHg 96%
    03:00 -1°C° 0 mm 7 mps 674 mmHg 96%
    04:00 -1°C° 0 mm 6 mps 674 mmHg 97%
    05:00 -1°C° 0.4 mm 7 mps 675 mmHg 97%
    06:00 0°C° 0.4 mm 8 mps 675 mmHg 97%
    07:00 0°C° 0.4 mm 9 mps 676 mmHg 97%
    08:00 -1°C° 0.2 mm 11 mps 676 mmHg 94%
    09:00 -1°C° 0.2 mm 13 mps 677 mmHg 91%
    10:00 -1°C° 0.2 mm 15 mps 678 mmHg 89%
    11:00 -1°C° 0.1 mm 15 mps 678 mmHg 87%
    12:00 -1°C° 0.1 mm 14 mps 678 mmHg 86%
    13:00 0°C° 0.1 mm 14 mps 679 mmHg 84%
    14:00 -1°C° 0.2 mm 13 mps 679 mmHg 85%
    15:00 -1°C° 0.2 mm 13 mps 679 mmHg 85%
    16:00 -1°C° 0.2 mm 12 mps 679 mmHg 85%
    17:00 -1°C° 0.1 mm 12 mps 680 mmHg 86%
    18:00 -1°C° 0.1 mm 12 mps 680 mmHg 87%
    19:00 -2°C° 0.1 mm 11 mps 681 mmHg 88%
    20:00 -2°C° 0 mm 11 mps 681 mmHg 88%
    21:00 -2°C° 0 mm 11 mps 681 mmHg 88%
    22:00 -2°C° 0 mm 11 mps 682 mmHg 88%
    23:00 -2°C° 0 mm 10 mps 682 mmHg 88%

    26 January, Saturday

    Time Temperature Precipitation Wind Pressure Humidity
    00:00 -3°C° 0 mm 10 mps 682 mmHg 88%
    01:00 -3°C° 0 mm 10 mps 682 mmHg 88%
    02:00 -3°C° 0 mm 10 mps 682 mmHg 88%
    03:00 -3°C° 0 mm 10 mps 682 mmHg 88%
    04:00 -3°C° 0 mm 10 mps 682 mmHg 88%
    05:00 -3°C° 0 mm 9 mps 682 mmHg 89%
    06:00 -2°C° 0 mm 8 mps 682 mmHg 90%
    07:00 -1°C° 0 mm 7 mps 682 mmHg 91%
    08:00 -1°C° 0 mm 8 mps 683 mmHg 89%
    09:00 -1°C° 0 mm 8 mps 683 mmHg 87%
    10:00 0°C° 0 mm 8 mps 683 mmHg 85%
    11:00 0°C° 0 mm 8 mps 683 mmHg 81%
    12:00 +2°C° 0 mm 7 mps 683 mmHg 78%
    13:00 +2°C° 0 mm 7 mps 683 mmHg 75%
    14:00 +3°C° 0 mm 7 mps 683 mmHg 74%
    15:00 +3°C° 0 mm 7 mps 683 mmHg 73%
    16:00 +3°C° 0 mm 7 mps 683 mmHg 72%
    17:00 +2°C° 0 mm 6 mps 683 mmHg 77%
    18:00 +2°C° 0 mm 5 mps 683 mmHg 82%
    19:00 +1°C° 0 mm 4 mps 683 mmHg 87%
    20:00 +1°C° 0 mm 4 mps 683 mmHg 88%
    21:00 0°C° 0 mm 4 mps 683 mmHg 89%
    22:00 +1°C° 0 mm 3 mps 683 mmHg 90%
    23:00 +1°C° 0 mm 3 mps 683 mmHg 89%
    Show more